GW4191 Weather Reports


time (UTC)temp
C
wind
direction
speed
KPH
gust
KPH
rain 1hr
cm
rain 24hr
cm
rain mn
cm
humidity
%
barometer
mb
20260505153031 15 162 0.0 3.2 0.00 0.71 0.00 89 1004.2
20260505151512 16 162 0.0 1.6 0.00 0.71 0.00 90 1004.0
20260505124521 14 162 0.0 0.0 0.00 0.71 0.00 93 1003.9
20260505123053 14 162 0.0 0.0 0.00 0.71 0.00 93 1003.4
20260505121544 -17 0.0 0.0 0.00 0.71 0.00 1003.4
20260505120009 -17 0.0 0.0 0.00 0.71 0.00 1003.4
20260505114507 -17 0.0 0.0 0.00 0.71 0.71 1003.4
20260505113032 -17 0.0 0.0 0.00 0.71 0.71 1002.9
20260505111533 -17 0.0 0.0 0.00 0.71 0.71 1002.6
20260505110109 -17 0.0 0.0 0.03 0.71 0.71 1002.9
20260505101541 15 162 0.0 0.0 0.13 0.71 0.71 93 1003.0
20260505100041 15 162 0.0 0.0 0.13 0.69 0.69 93 1003.1
20260505094540 15 162 0.0 4.8 0.10 0.66 0.66 93 1002.7
20260505093012 15 162 0.0 0.0 0.10 0.64 0.64 93 1003.1
20260505091508 15 162 0.0 0.0 0.10 0.58 0.58 93 1003.6
20260505090038 15 162 0.0 3.2 0.10 0.56 0.56 93 1003.1
20260505084539 15 162 0.0 0.0 0.20 0.56 0.56 93 1003.8
20260505083039 15 162 0.0 0.0 0.23 0.53 0.53 93 1004.5
20260505081533 15 162 0.0 3.2 0.23 0.48 0.48 92 1003.8
20260505080032 15 162 0.0 0.0 0.25 0.46 0.46 92 1004.2
20260505074534 15 162 0.0 0.0 0.20 0.36 0.36 91 1004.6
20260505073102 15 162 0.0 0.0 0.28 0.30 0.30 90 1004.7
20260505071558 15 162 0.0 6.4 0.25 0.25 0.25 89 1005.0
20260505070027 15 162 0.0 0.0 0.20 0.20 0.20 87 1004.7
20260505064532 16 162 0.0 6.4 0.15 0.15 0.15 83 1004.4
20260505063052 16 162 0.0 12.9 0.03 0.03 0.03 80 1003.7
20260505061552 17 162 0.0 1.6 0.00 0.00 0.00 78 1003.7
20260505060019 17 162 0.0 0.0 0.00 0.00 0.00 74 1003.8
20260505054539 17 162 0.0 1.6 0.00 0.00 0.00 73 1004.2
20260505053048 17 162 0.0 0.0 0.00 0.00 0.00 73 1004.2
20260505051548 17 162 0.0 0.0 0.00 0.00 0.00 72 1003.9
20260505041545 18 162 0.0 1.6 0.00 0.00 0.00 70 1004.2
20260505040016 18 162 0.0 1.6 0.00 0.00 0.00 69 1004.4
20260505034522 18 162 0.0 1.6 0.00 0.00 0.00 68 1004.6
20260505033044 18 162 0.0 3.2 0.00 0.00 0.00 67 1004.7
20260505031545 18 162 0.0 0.0 0.00 0.00 0.00 67 1004.7
20260505030047 18 162 0.0 1.6 0.00 0.00 0.00 67 1004.8
20260505024539 18 162 0.0 0.0 0.00 0.00 0.00 66 1004.7
20260505023043 19 162 0.0 0.0 0.00 0.00 0.00 66 1004.6
20260505021540 19 162 0.0 0.0 0.00 0.00 0.00 65 1004.4
20260505020052 19 162 0.0 0.0 0.00 0.00 0.00 64 1004.2
20260505014511 20 162 0.0 3.2 0.00 0.00 0.00 62 1004.0
20260505013012 20 162 0.0 14.5 0.00 0.00 0.00 61 1003.9
20260505011536 20 162 0.0 14.5 0.00 0.00 0.00 61 1003.7
20260505010036 21 164 0.0 1.6 0.00 0.00 0.00 61 1003.5
20260505004515 21 164 0.0 3.2 0.00 0.00 0.00 59 1003.3
20260505003005 21 164 0.0 8.0 0.00 0.00 0.00 58 1003.4
20260505001537 22 164 0.0 12.9 0.00 0.00 0.00 56 1003.0
20260505000037 22 165 0.0 0.0 0.00 0.00 0.00 55 1003.0
20260504234506 22 165 0.0 12.9 0.00 0.00 0.00 53 1003.1
20260504233004 23 165 0.0 16.1 0.00 0.00 0.00 52 1003.1
20260504231501 23 165 0.0 14.5 0.00 0.00 0.00 51 1003.3
20260504230002 24 165 0.0 9.7 0.00 0.00 0.00 50 1003.2
20260504224618 24 166 0.0 12.9 0.00 0.00 0.00 50 1003.2
20260504223100 24 164 6.4 25.7 0.00 0.00 0.00 49 1003.1
20260504221641 25 166 4.8 24.1 0.00 0.00 0.00 46 1003.3
20260504220054 25 165 6.4 25.7 0.00 0.00 0.00 46 1003.4
20260504214552 25 161 6.4 19.3 0.00 0.00 0.00 47 1003.5
20260504213054 25 160 9.7 25.7 0.00 0.00 0.00 48 1003.6
20260504211548 25 170 12.9 25.7 0.00 0.00 0.00 47 1003.8
20260504210049 25 165 16.1 27.4 0.00 0.00 0.00 47 1003.9
20260504204545 25 165 11.3 32.2 0.00 0.00 0.00 49 1004.0
20260504203044 25 164 19.3 35.4 0.00 0.00 0.00 47 1004.2
20260504201511 25 153 24.1 35.4 0.00 0.00 0.00 47 1004.4
20260504200010 25 150 16.1 33.8 0.00 0.00 0.00 49 1004.4
20260504194514 25 156 16.1 35.4 0.00 0.00 0.00 49 1004.4
20260504193007 25 154 16.1 32.2 0.00 0.00 0.00 48 1004.6
20260504191503 25 150 17.7 35.4 0.00 0.00 0.00 49 1004.7
20260504190002 24 160 14.5 35.4 0.00 0.00 0.00 50 1004.7
20260504184541 23 148 12.9 48.3 0.00 0.00 0.00 50 1004.8
20260504183028 23 165 17.7 37.0 0.00 0.00 0.00 50 1004.9
20260504181556 23 160 14.5 43.5 0.00 0.00 0.00 50 1005.1
20260504180055 23 165 4.8 25.7 0.00 0.00 0.00 51 1005.3
20260504174522 23 160 24.1 33.8 0.00 0.00 0.00 48 1005.5
20260504173020 23 163 11.3 27.4 0.00 0.00 0.00 51 1005.7
20260504171549 23 161 16.1 37.0 0.00 0.00 0.00 50 1005.7